Showing default

KAZEOSAT 2, 40010

Orbit data source: Space-Track

KAZEOSAT 2, 40010 is a payload satellite owned by Kazkosmos (KZ) in SSO that was launched on Thu, 19 Jun 2014 UTC via a DNEPR launch vehicle from the Orenburg, Russia (OREN). Payloads include a variety of satellites, spacecraft, and rockets equipped with specific instruments for various scientific and technological missions. These include communications satellites like Starlink; space stations such as the ISS; scientific satellites like the Hubble; Earth observation satellites from companies like Planet Labs, Umbra, and HawkEye 360; GPS; miniature CubeSats for education and research; and military/defense satellites.

Loading next visibility...
KAZEOSAT 2 details
Identifier
40010, 2014-033A
Orbit
SSO
Last TLE update9 hours ago
Origin
Flag of KZKazkosmos (KZ / KAZ)
ManufacturerSSTL (Astrium)
MissionOperational Civil Imaging
Bus & MotorSSTL-150, AOCS
Mass177 kg wet, 177 kg dry
Launch date (UTC)
2014-06-19 (11 years ago)
Launch vehicle
DNEPR
Launch site
Orenburg, Russia (OREN)
Object type
Payload
Rocket body
Debris
Shape & HBRBox, 3 m
Radar Cross Section1.500 m², Medium (>0.1 m² and < 1m²)

Expand to show TLE details & history

TLE from 9 hours ago
0 KAZEOSAT 2
1 40010U 14033A   24361.21284257  .00001754  00000-0  21688-3 0  9998
2 40010  97.5920 217.0412 0007990 300.2612  59.7811 14.83953096569127
Epoch: 2024-12-26T05:06Z
Definitive object data (Epoch: 2024-12-26T05:06:29.598Z)
Latitude-0.00007°
Longitude45.22241°
Altitude617.1 km
Speed7.552 km/s
True Right ascension14h 28m 09s
True Declination0° 00' 00"
Sunlit
Object was in daylight at TLE epoch
Visualization TLE readout
Latitude43.57246°
Longitude-127.18733°
Altitude628.747 km
Speed7.545 km/s
Apparent Right ascension02h 05m 29s
Apparent Declination4° 20' 18"
Sunlit
Object is in full shadow
Visualization observer readout
Local Sidereal Time13:10:24
Azimuth340.745° N
Elevation-43.969°
Doppler factor1
Orbital elements
Apogee altitude619.482 km
Perigee altitude608.309 km
Semi-major axis6,992.033 km
Eccentricity0.000799
Inclination97.592°
RAAN217.0412°
Arg. of periapsis300.2612°
True anomaly59.86026°
Mean anomaly59.7811°
Eccentric anomaly59.82067°
Mean motion3.71226 °/min
BSTAR0.00021688
Orbital period96.98 mins
Loading maneuver chart data...
Loading historical data...
Loading historical data...
Loading historical data...
Loading historical data...
Loading historical data...
Loading historical data...
Loading historical data...

KAZEOSAT 2 Visibility forecast

Observer location: undefined°, undefined

Span
Click to sort rows by Start time (UTC) header in descending order
Start Az.
Max El. time (UTC)
Max El. Az.
Max El.
End time (UTC)
End Az.
8 mins2024-12-26 14:55:40.234Z181.389° SSW2024-12-26 14:59:40.234Z255.109° W39.715°2024-12-26 15:03:40.234Z338.143° N
5 mins2024-12-27 02:44:40.234Z52.888° ENE2024-12-27 02:46:40.234Z91.973° ESE24.054°2024-12-27 02:49:40.234Z146.505° SSE
5 mins2024-12-27 04:20:40.234Z331.658° NNW2024-12-27 04:22:40.234Z293.582° NW23.197°2024-12-27 04:25:40.234Z241.186° WSW
4 mins2024-12-27 13:38:40.234Z94.901° ESE2024-12-27 13:40:40.234Z59.623° ENE17.897°2024-12-27 13:42:40.234Z28.737° NE
|